#timestamp,LO_Frequency,Hit,StdDev 
1564801215.1,286047002.6,N
1564801216.0,286047002.6,N
1564801235.8,286046999.8,N
1564801255.6,286047000.9,N
1564801275.5,286046998.4,N
1564801295.3,286047001.2,N
1564801315.1,286047000.7,N
1564801335.9,286047001.2,N
1564801355.7,286046998.2,N
1564801375.6,286047000.6,N
1564801395.4,286046998.6,N
1564801415.2,286047001.2,N
1564801435.1,286046998.4,N
1564801436.0,286046998.4,N
1564801455.8,286047000.3,N
1564801475.7,286046999.8,N
1564801495.5,286046999.9,N
1564801515.3,286047000.3,N
1564801535.2,286047000.1,N
1564801555.0,286047002.5,N
1564801555.9,286047002.5,N
1564801575.7,286047002.6,N
1564801595.6,286046999.7,N
1564801615.4,286046999.8,N
1564801635.3,286046999.8,N
1564801655.1,286047000.5,N
1564801656.0,286047000.5,N
1564801675.8,286047000.2,N
1564801695.7,286047000.3,N
1564801715.5,286047001.1,N
1564801735.4,286046998.1,N
1564801755.2,286046999.7,N
1564801775.0,286046998.1,N
1564801775.9,286046998.1,N
1564801795.8,286047002.8,N
1564801815.6,286047002.3,N
1564801835.4,286046999.3,N
1564801855.3,286047001.1,N
1564801875.1,286047000.6,N
1564801895.9,286047000.4,N
1564801915.7,286047001.9,N
1564801935.5,286047002.5,N
1564801955.4,286047002.5,N
1564801975.2,286047002.1,N
1564801995.0,286047004.0,N
1564801995.9,286047004.0,N
1564802015.8,286047002.2,N
1564802035.6,286047002.8,N
1564802055.5,286047000.0,N
1564802075.3,286046999.8,N
1564802095.1,286047000.1,N
1564802115.9,286047000.2,N
1564802135.7,286047002.5,N
1564802155.5,286047002.2,N
1564802175.4,286047000.4,N
1564802195.2,286047002.8,N
1564802215.1,286047002.8,N
1564802216.0,286047002.8,N
1564802235.8,286046999.7,N
1564802255.6,286047000.1,N
1564802275.5,286047001.6,N
1564802295.3,286047001.3,N
1564802315.2,286047001.5,N
1564802335.9,286047002.4,N
1564802355.7,286047002.7,N
1564802375.6,286047002.2,N
1564802395.4,286047002.5,N
1564802415.3,286046999.8,N
1564802435.1,286047000.4,N
1564802436.0,286047000.4,N
1564802455.8,286047000.7,N
1564802475.7,286047000.9,N
1564802495.5,286047000.4,N
1564802515.3,286046999.9,N
1564802535.2,286047002.8,N
1564802555.0,286047002.6,N
1564802555.9,286047002.6,N
1564802575.8,286047002.0,N
1564802595.6,286047002.1,N
1564802615.4,286047004.4,Y
1564802635.3,286047000.0,P
1564802655.1,286047000.3,N
1564802675.9,286046999.7,N
1564802695.7,286047000.5,N
1564802715.5,286047000.1,N
1564802735.4,286047000.7,N
1564802755.2,286046999.8,N
1564802775.0,286047000.0,N
1564802775.9,286047000.0,N
1564802795.8,286047000.9,N
1564802815.6,286047002.5,Y
1564802835.5,286046999.8,P
1564802855.3,286046999.9,N
1564802875.1,286047002.4,P
1564802895.9,286046999.9,N
1564802915.7,286047000.0,N
1564802935.6,286047002.3,N
1564802955.4,286047002.4,N
1564802975.2,286047002.7,N
1564802995.1,286047002.4,N
1564802996.0,286047002.4,N
1564803015.8,286047000.2,N
1564803035.6,286047002.0,N
1564803055.5,286047002.7,N
1564803075.3,286047002.6,N
1564803095.2,286047002.6,N
1564803115.9,286047002.7,N
1564803135.7,286047000.2,N
1564803155.6,286047001.3,N
1564803175.4,286047001.7,N
1564803195.2,286047002.3,N
1564803215.1,286047002.6,N
1564803216.0,286047002.6,N
1564803235.8,286047000.2,N
1564803255.7,286047002.6,N
1564803275.5,286047002.4,N
1564803295.3,286047000.4,N
1564803315.2,286047000.4,N
1564803335.0,286047000.2,N
1564803335.9,286047000.2,N
1564803355.8,286046999.7,N
1564803375.6,286046999.8,N
1564803395.4,286047002.7,N
1564803415.3,286047000.4,N
1564803435.1,286047000.3,N
1564803455.8,286047000.4,N
1564803475.7,286046999.9,N
1564803495.5,286047000.4,N
1564803515.4,286046998.2,N
1564803535.2,286047000.6,N
1564803555.0,286047000.9,N
1564803555.9,286047000.9,N
1564803575.8,286047000.8,N
1564803595.6,286047001.1,N
1564803615.4,286047002.8,N
1564803635.3,286047000.9,N
1564803655.1,286046999.8,N
1564803675.9,286047002.8,N
1564803695.7,286047000.5,N
1564803715.5,286047000.5,N
1564803735.4,286047001.1,N
1564803755.2,286047001.0,N
1564803775.1,286047000.8,N
1564803776.0,286047000.8,N
1564803795.8,286046998.1,N
1564803815.6,286047001.0,N
1564803835.5,286047000.8,N
1564803855.3,286046998.3,N
1564803875.1,286046997.3,N
1564803895.9,286046996.6,N
1564803915.7,286046998.0,N
1564803935.6,286046995.7,N
1564803955.4,286046995.0,N
1564803975.2,286046995.2,N
1564803995.1,286046997.6,N
1564803996.0,286046997.6,N
1564804015.8,286046995.7,N
1564804035.6,286046993.3,Y
1564804055.5,286046993.5,P
1564804075.3,286046994.2,N
1564804095.2,286046993.6,N
1564804115.9,286046994.0,N
1564804135.7,286046994.1,N
1564804155.6,286046993.9,N
1564804175.4,286046993.6,Y
1564804195.3,286046999.7,P
1564804215.1,286047002.1,N
1564804216.0,286047002.1,N
1564804235.8,286047004.4,N
1564804255.7,286047001.3,N
1564804275.5,286047002.6,N
1564804295.3,286047001.1,N
1564804315.2,286047002.4,N
1564804335.0,286047000.4,N
1564804335.9,286047000.4,N
1564804355.8,286046998.2,N
1564804375.6,286047000.3,N
1564804395.4,286046999.9,N
1564804415.3,286047000.2,N
1564804435.1,286047002.6,N
1564804455.8,286047002.0,N
1564804475.7,286047003.8,N
1564804495.5,286047004.3,N
1564804515.4,286047001.8,N
1564804535.2,286047003.1,N
1564804555.0,286047001.3,N
1564804555.9,286047001.3,N
1564804575.8,286047001.6,N
1564804595.6,286047004.4,N
1564804615.4,286047003.6,N
1564804635.3,286047004.1,N
1564804655.1,286047003.4,N
1564804675.9,286047005.2,N
1564804695.7,286047007.6,Y
1564804715.5,286047003.9,P
1564804735.4,286047003.5,P
1564804755.2,286047005.9,P
1564804775.1,286047001.5,N
1564804776.0,286047001.5,N
1564804795.8,286047004.0,N
